Weather History for LIRK - March, 2013

Change the Weather History Date:

Sunday, March 31, 2013

  Actual Average Record
Temperature  
Mean Temperature 33 °F -  
Max Temperature 34 °F 37 °F 52 °F (2015)
Min Temperature 32 °F 29 °F 15 °F (1997)
Degree Days  
Heating Degree Days 32    
Moisture  
Dew Point 33 °F    
Average Humidity 100    
Maximum Humidity 100    
Minimum Humidity 100    
Precipitation  
Precipitation 0.00 in - - ()
Sea Level Pressure  
Sea Level Pressure 29.51 in    
Wind  
Wind Speed 31 mph ()    
Max Wind Speed 55 mph    
Max Gust Speed -    
Visibility 0.0 miles    
Events Fog , Rain    
Averages and records for this station are not official NWS values.
T = Trace of Precipitation, MM = Missing Value Source: Averaged Metar Reports

Daily Weather History Graph

Daily Weather History Graph

Search for Another Location

Airport or City:

Trip Planner

Search our weather history database for the weather conditions in past years. The results will help you decide how hot, cold, wet, or windy it might be!

Date:

Astronomy

Mar. 31, 2013 Rise Set
Actual Time 6:52 AM CEST 7:32 PM CEST
Civil Twilight 6:23 AM CEST 8:01 PM CEST
Nautical Twilight 5:50 AM CEST 8:34 PM CEST
Astronomical Twilight 5:15 AM CEST 9:09 PM CEST
Moon No Moon Rise 9:19 AM CEST (3/31)
Length of Visible Light 13h 37m
Length of Day
12h 40m
Waning Gibbous, 80% of the Moon is Illuminated
Mar 31
Waning Gibbous
Apr 3
Last Quarter
Apr 10
New
Apr 18
First Quarter
Apr 25
Full

Hourly Weather History & Observations

Time (CEST) Temp. Dew Point Humidity Pressure Visibility Wind Dir Wind Speed Gust Speed Precip Events Conditions
12:55 AM 33.8 °F 33.8 °F 100% 29.50 in 0.0 mi North - - N/A Fog , Rain Rain
1:00 AM 34 °F 34 °F 100%  in 0 mi West 55.2 mph - -  
1:55 AM 33.8 °F 33.8 °F 100% 29.50 in 0.0 mi North - - N/A Fog , Rain Rain
3:55 AM 33.8 °F 33.8 °F 100% 29.47 in 0.0 mi North - - N/A Fog , Rain Rain
4:55 AM 33.8 °F 33.8 °F 100% 29.47 in 0.0 mi North - - N/A Fog , Rain Rain
7:55 AM 33.8 °F 33.8 °F 100% 29.44 in - North - - N/A Fog , Rain Rain
8:00 AM 33 °F 33 °F 100%  in 0 mi WSW 46.0 mph - -  
8:55 AM 33.8 °F 33.8 °F 100% 29.44 in - North - - N/A Fog , Rain Rain
9:55 AM 33.8 °F 33.8 °F 100% 29.44 in - North - - N/A Fog , Rain Rain
10:55 AM 33.8 °F 33.8 °F 100% 29.47 in - North - - N/A Fog , Rain Rain
11:55 AM 33.8 °F 33.8 °F 100% 29.47 in - North - - N/A Fog , Rain Rain
12:55 PM 33.8 °F 33.8 °F 100% 29.50 in 0.0 mi North - - N/A Fog Light Freezing Fog
1:55 PM 33.8 °F 33.8 °F 100% 29.53 in 0.0 mi North - - N/A Fog Light Freezing Fog
2:00 PM 33 °F 33 °F 100%  in 0 mi WSW 20.7 mph - -  
2:55 PM 33.8 °F 33.8 °F 100% 29.53 in 0.0 mi North - - N/A Fog Light Freezing Fog
3:55 PM 33.8 °F 33.8 °F 100% 29.53 in 0.0 mi North - - N/A Fog Light Freezing Fog
4:55 PM 33.8 °F 33.8 °F 100% 29.53 in 0.0 mi North - - N/A Fog Light Freezing Fog
5:55 PM 33.8 °F 33.8 °F 100% 29.53 in 0.0 mi North - - N/A Fog Light Freezing Fog
6:55 PM 32.0 °F 32.0 °F 100% 29.53 in 0.0 mi North - - N/A Fog Light Freezing Fog
7:55 PM 32.0 °F 32.0 °F 100% 29.53 in 0.0 mi North - - N/A Fog Light Freezing Fog
8:00 PM 32 °F 32 °F 100%  in 0 mi SW 35.7 mph - -  
8:55 PM 32.0 °F 32.0 °F 100% 29.53 in 0.0 mi North - - N/A Fog Light Freezing Fog
9:55 PM 32.0 °F 32.0 °F 100% 29.53 in 0.0 mi North - - N/A Fog Light Freezing Fog
10:55 PM 32.0 °F 32.0 °F 100% 29.56 in 0.0 mi North - - N/A Fog Light Freezing Fog
11:55 PM 32.0 °F 32.0 °F 100% 29.59 in 0.0 mi North - - N/A Fog Light Freezing Fog
12:55 AM 32.0 °F 32.0 °F 100% 29.59 in 0.0 mi North - - N/A Fog Light Freezing Fog